STARLINK-37162, 68262

Orbit data source: Space-Track

STARLINK-37162, 68262 is a payload satellite owned by SpaceX/Seattle (US) in LEO that was launched on Thu, 19 Mar 2026 UTC via an FALCON 9 launch vehicle from the Air Force Eastern Test Range (AFETR). Payload-class satellites include a variety of spacecraft equipped with specific instruments for various scientific and technological missions. These include communications satellites like Starlink; space stations such as the ISS; scientific satellites like the Hubble; Earth observation satellites from companies like Planet Labs, Umbra, and HawkEye 360; GPS; miniature CubeSats for education and research; and military/defense satellites.

Loading next visibility...
Identifier
68262, 2026-055A
Orbit
LEO
Country
Flag of USUS
Related business
Manufacturer
SpaceX/Seattle
Mission
Operational spacecraft
Bus & Motor
STARLINK V2MO, Unknown motor
Mass
575 kg wet, ~530 kg dry
Launch date (UTC)
2026-03-19 (3 months ago)
Launch vehicle
FALCON 9
Launch site
Air Force Eastern Test Range (AFETR)
Object type
Payload
Rocket body
Debris
Shape & HBR
Unknown shape, 17.7 m
Radar Cross Section
Large (>1 m²)

Expand to show TLE details & history
Last TLE update: 12 hours ago

TLE from 12 hours ago
0 STARLINK-37162
1 68262U 26055A   26171.35855073  .00009835  00000-0  30182-3 0  9997
2 68262  53.1578 200.7038 0001179  84.4136 275.7001 15.34400177 15672
Epoch: 2026-06-20T08:36Z
TLE epoch observation values (Epoch: 2026-06-20T08:36:18.783Z)
Latitude
-0°
Longitude
163.05122°
Altitude
463.524 km
Speed
7.636 km/s
True Right ascension
13h 22m 48s
True Declination
0° 00' 00"
Sunlit
Object was in daylight at epoch
Visualization orbit readout
Latitude
Unknown
Longitude
Unknown
Altitude
Unknown
Speed
Unknown
Apparent Right ascension
Unknown
Apparent Declination
Unknown
Sunlit
N/A
Visualization observer readout
Local Sidereal Time
07:12:21
Azimuth
Unknown
Elevation
Unknown
Doppler factor
Unknown
Orbital elements
Apogee altitude
463.767 km
Perigee altitude
462.153 km
Semi-major axis
6,841.097 km
Eccentricity
0.00012
Inclination
53.1578°
RAAN
200.7038°
Arg. of periapsis
84.4136°
True anomaly
275.68666°
Mean anomaly
275.7001°
Eccentric anomaly
275.69338°
Mean motion
3.83579 °/min
Orbital period
93.85 mins
BSTAR
0.00030182
Loading maneuver chart data...
Computing Atmospheric mass density...
Loading historical data...
Loading historical data...
Loading historical data...
Loading historical data...
Loading historical data...
Loading historical data...
Loading historical data...

Documentation

Showing up to 5 results
|